Dewpoint
47 47 47 48 49 50 50 51 51 51 51 54 58 59 59 59 58 58 58 58 57 54
45 46 47 47 48 48 48 48 48 48 49 50 52 55 57 58 56 56 56 56 56 55
42 42 42 42 42 43 44 43 44 45 47 47 48 50 52 54 54 53 54 54 54 54
40 40 39 39 39 39 39 38 39 40 41 41 43 44 46 47 47 49 48 46 47 45
38 38 38 38 38 38 37 37 37 37 37 37 38 39 40 41 41 42 41 41 41 40
37 37 37 37 37 37 37 36 36 36 36 37 37 38 38 39 39 38 38 38 38 37
36 37 37 37 38 38 37 37 37 37 37 37 37 36 36 37 36 36 36 36 36 37
36 37 37 37 37 37 37 37 38 38 37 37 36 37 35 35 35 34 34 35 36 38
36 36 36 36 36 36 36 36 36 36 37 36 36 36 36 34 34 34 33 33 33 35
35 35 35 36 35 34 34 35 35 35 37 37 37 37 35 34 32 32 31 31 31 31
35 35 35 34 34 33 33 33 33 34 35 36 36 35 34 33 30 30 29 29 27 25
34 34 34 33 32 32 32 32 32 31 30 28 29 29 29 26 25 24 24 23 23 21
35 34 33 33 32 32 31 29 28 27 26 28 26 27 26 24 21 21 21 20 18 23
34 33 33 32 31 29 28 28 29 28 27 26 26 26 25 24 21 17 17 17 17 19
Wind_Speed
9 6 5 5 4 5 5 6 10 11 11 12 7 4 6 8 7 3 7 12 14 15
9 9 8 9 9 8 9 8 10 10 11 12 12 10 7 4 4 1 5 8 11 13
9 10 10 11 12 10 10 11 11 11 11 12 12 13 11 7 6 6 6 6 8 7
9 10 10 11 11 10 10 11 11 10 10 12 13 13 11 10 11 8 7 10 9 7
9 9 10 10 10 11 11 11 11 10 9 10 10 11 11 10 11 11 10 10 9 9
9 10 10 10 10 11 10 10 11 12 11 10 10 10 9 8 10 10 10 9 8 7
8 8 9 9 9 10 9 11 12 12 11 11 11 11 11 11 9 10 11 10 10 10
5 6 6 6 6 8 11 12 12 13 13 13 13 12 11 10 11 12 12 13 11 12
4 5 5 5 8 9 11 12 13 14 12 12 12 14 13 11 12 12 12 11 13 14
4 6 6 7 10 11 11 12 13 12 10 11 12 13 13 13 10 11 10 10 10 10
6 8 8 9 11 11 9 10 10 10 10 10 11 13 13 11 9 9 9 9 9 8
6 8 9 10 10 8 9 8 8 8 11 11 10 11 11 9 9 10 9 8 6 6
6 8 9 9 8 6 7 7 6 7 7 8 8 8 6 5 5 6 5 5 6 8
8 9 9 8 7 7 7 5 4 3 3 5 6 6 7 7 6 4 4 4 4 5
Wind_Direction
32 33 37 33 46 40 23 15 4 3 2 9 358 318 274 251 234 220 258 252 232 232
43 45 52 54 52 46 32 23 19 15 7 7 9 5 343 286 278 150 301 284 261 240
56 54 53 49 43 35 28 27 29 24 21 17 16 12 10 358 349 9 2 346 326 295
52 48 47 44 31 25 27 23 30 31 34 29 24 21 21 21 18 29 20 23 14 18
51 46 45 39 30 25 25 25 24 25 38 37 34 32 32 29 35 42 37 32 35 28
51 49 43 37 32 32 30 30 32 33 31 33 33 35 36 42 50 55 55 48 48 42
61 60 56 50 47 47 46 47 44 44 38 37 41 39 38 44 54 63 59 55 54 46
76 69 65 60 60 58 59 57 48 46 41 39 43 43 51 55 58 64 64 54 47 51
99 92 89 76 66 61 58 56 55 44 44 50 55 58 66 68 67 68 68 65 55 46
121 103 87 83 80 72 66 66 64 53 44 59 62 68 71 76 63 68 66 65 64 62
113 107 99 94 89 81 75 76 74 68 53 58 62 62 68 74 74 71 66 64 64 62
114 119 116 101 93 88 88 86 82 70 70 68 59 65 69 76 72 68 57 46 42 57
133 123 113 110 110 104 106 105 87 71 47 57 47 75 67 66 58 56 39 31 20 12
137 129 125 129 142 138 128 106 97 82 53 58 56 42 56 61 59 45 18 15 1 344